Theta_e
324 324 323 322 317 314 313 312 311 311 311 310 311 311 311 311 311 311 311 311 310 310 310 310 311 312 313 313 313 312 311 312 315 317 317 318 323 320 319 322 324 323 322 322 322 322 321 320 320 320 319 319 318 317 317 317 315 314 315 315 315 315 315 314 314 314 313 314 314 314 314 314 314 314 314 313 312 313 312 311 312 312 311 311 311
324 322 322 319 317 313 311 310 310 309 310 310 310 311 310 310 310 310 309 309 309 308 309 309 309 309 310 311 310 310 311 312 313 314 314 317 321 323 317 320 322 323 321 321 322 321 320 321 319 318 319 318 317 317 316 315 316 315 314 314 314 314 314 314 313 313 312 312 313 313 313 313 313 312 313 312 312 311 311 311 311 311 311 310 310
323 321 322 320 317 313 310 309 308 309 310 309 309 310 310 309 309 309 309 308 307 307 308 308 307 307 307 307 307 307 308 309 310 311 313 314 316 318 323 317 321 322 323 322 321 320 319 320 319 319 318 318 317 316 316 315 314 314 314 314 314 313 313 312 313 313 312 312 312 312 312 312 311 312 311 311 311 310 310 310 311 310 310 310 309
322 321 321 319 317 313 309 308 308 307 308 308 308 308 308 307 307 307 306 306 305 305 306 306 305 304 304 304 304 305 305 306 307 307 308 310 312 314 316 315 315 319 321 321 320 319 319 318 318 318 318 317 317 316 316 315 314 314 314 313 313 313 312 312 312 312 311 312 311 311 311 311 311 310 310 310 310 310 310 309 310 309 309 309 308
321 322 320 320 318 312 309 308 307 307 307 308 308 307 305 304 304 304 304 304 304 304 304 303 303 301 301 301 302 302 302 303 305 306 305 306 308 309 311 310 313 312 316 318 320 319 319 319 318 318 317 317 317 316 316 316 315 313 314 313 313 313 312 312 311 311 311 310 311 310 310 310 310 309 310 309 309 309 309 309 308 308 308 309 308
320 321 321 321 319 316 309 307 306 306 306 306 306 306 305 304 302 303 302 303 303 303 303 302 300 300 300 299 299 299 299 299 300 301 301 302 302 304 304 306 307 310 313 316 318 320 318 318 317 316 316 315 316 316 315 315 314 313 313 314 313 313 313 312 311 311 310 310 310 309 309 309 309 309 309 308 308 309 308 308 308 308 307 308 308
318 319 319 320 319 316 311 308 305 305 305 306 306 305 305 304 303 303 303 302 301 302 301 299 299 298 297 297 296 296 296 296 297 298 298 298 299 300 301 301 303 304 307 312 308 313 318 318 317 316 315 315 315 315 315 315 314 313 314 313 313 313 312 312 311 310 310 309 309 309 309 308 309 309 308 308 307 307 307 307 307 307 307 307 307
318 318 318 319 319 317 314 310 306 305 305 306 306 305 305 304 304 304 302 300 300 300 300 298 297 296 296 297 296 297 296 296 296 296 296 297 297 298 298 299 300 301 301 304 309 312 313 317 317 316 315 315 315 315 315 315 314 313 313 313 313 312 311 311 311 310 309 309 308 308 308 308 308 307 307 307 307 307 306 306 306 306 306 306 306
320 319 318 317 318 319 317 311 306 305 304 304 304 306 305 304 304 304 304 301 300 299 299 298 297 297 296 295 295 295 295 295 294 294 295 295 294 295 295 296 296 296 297 299 303 310 310 314 317 316 316 314 314 314 315 316 314 313 313 313 312 312 311 310 310 309 309 308 308 307 307 307 307 307 307 306 306 306 306 306 306 305 306 306 306
321 320 319 318 318 318 317 312 308 306 305 305 304 305 305 304 303 303 302 300 298 298 298 298 297 296 295 295 294 294 293 293 293 293 293 294 293 292 291 292 294 294 294 296 299 302 307 309 309 310 310 316 314 314 314 314 314 313 313 313 312 311 310 309 309 308 308 308 307 307 307 306 306 306 305 305 305 305 305 305 305 305 305 305 305
322 320 319 318 317 317 316 313 309 306 305 304 304 303 303 304 303 301 300 300 300 299 297 297 296 296 295 293 294 294 294 294 292 291 291 291 292 293 291 292 292 292 292 293 295 298 301 303 306 309 311 310 317 314 314 313 313 313 314 312 312 309 308 308 307 307 307 307 306 305 306 307 306 305 305 305 305 305 304 304 304 304 304 304 304
322 321 320 318 317 315 314 312 309 305 304 303 303 303 303 303 303 301 300 298 298 296 296 296 295 294 293 293 293 293 294 293 293 292 292 291 291 291 291 291 290 290 290 290 292 294 297 299 300 303 305 308 309 312 316 313 313 313 313 313 312 312 310 308 308 307 307 308 307 306 305 303 304 305 305 304 304 304 304 303 303 303 303 303 303
322 322 320 317 317 315 313 312 310 306 304 303 303 303 304 303 302 301 299 297 295 295 295 296 295 293 293 293 293 294 293 292 292 291 290 289 289 290 290 290 290 291 290 290 290 291 293 295 297 299 300 303 305 306 309 314 313 313 312 312 312 312 311 309 308 308 306 306 306 306 305 305 303 303 305 303 303 303 303 303 302 303 303 303 303
322 322 321 320 317 314 311 311 311 308 305 304 304 303 303 302 300 298 299 298 295 294 295 298 298 298 294 294 296 296 294 291 289 290 290 289 289 290 292 291 292 291 290 289 289 290 291 292 294 297 298 299 298 298 301 304 309 314 313 311 313 312 311 310 309 308 306 306 306 305 304 305 304 303 303 303 303 303 302 303 302 302 302 302 303
324 322 321 320 318 315 313 312 310 308 306 304 303 302 302 301 300 299 297 299 297 295 296 301 301 298 297 296 295 296 297 292 291 289 290 291 291 291 291 290 290 289 288 288 289 289 289 291 293 294 295 296 294 294 296 298 300 304 311 311 311 312 311 310 310 308 306 306 305 305 305 304 304 304 303 303 303 302 302 302 302 301 301 302 302
326 324 323 321 319 317 315 312 310 309 307 304 302 301 301 301 300 300 299 295 296 294 296 299 300 299 296 298 294 295 296 299 297 295 292 291 290 290 289 288 289 287 287 287 288 288 288 289 290 292 293 294 293 293 294 296 298 298 299 306 309 310 310 310 310 309 308 306 306 305 305 304 304 303 303 303 303 302 302 302 302 300 300 301 301
328 327 324 323 321 319 316 312 311 310 308 306 303 302 302 302 300 300 299 299 295 295 295 298 298 304 301 292 290 290 295 294 297 297 289 289 289 289 288 287 287 287 288 288 288 288 288 289 289 289 291 291 290 291 292 294 296 297 299 298 302 309 310 311 310 309 309 308 307 305 305 304 304 304 303 303 303 302 302 301 301 300 301 300 300
325 326 326 324 323 321 319 315 312 312 311 309 308 305 302 301 301 301 299 301 299 296 295 296 298 298 298 300 299 299 296 291 295 295 289 291 292 289 288 288 287 287 287 287 288 289 289 288 287 288 288 288 288 290 291 293 293 295 299 304 306 308 309 309 310 309 309 308 307 306 306 304 304 303 303 303 302 302 301 301 301 300 300 300 300
323 324 324 324 325 323 321 317 314 312 309 308 307 304 302 301 301 301 301 301 302 296 296 295 296 296 296 296 294 292 295 293 293 290 292 292 288 288 287 288 287 287 287 287 289 289 288 288 288 288 288 287 287 288 290 292 296 296 301 305 307 307 309 309 308 308 309 308 307 306 306 305 304 303 303 303 302 302 301 301 300 300 300 300 299
321 322 323 323 322 322 321 319 316 313 309 308 308 307 305 303 302 301 302 301 301 299 297 296 294 296 298 296 294 293 293 292 293 296 296 291 291 288 288 288 287 287 288 288 288 288 288 287 287 287 288 288 287 287 288 290 291 295 299 306 308 307 308 308 307 307 306 307 307 306 306 305 305 304 303 302 302 301 301 301 300 300 299 299 300
317 319 319 320 319 322 322 320 317 314 310 310 310 308 305 304 302 300 300 300 300 301 300 297 297 299 299 297 296 294 292 292 293 293 292 293 295 287 288 289 287 288 287 288 288 288 288 288 288 287 287 288 287 287 288 288 290 291 295 305 308 308 308 307 306 306 306 305 305 305 306 306 305 304 303 303 302 301 301 301 300 300 299 299 299
314 314 315 316 317 316 317 317 317 316 310 311 309 308 305 304 302 301 300 300 301 300 300 300 298 300 302 299 295 294 292 291 291 290 290 295 297 291 289 287 285 287 288 287 286 287 287 287 287 286 286 287 288 287 287 287 288 289 293 300 306 308 308 306 305 304 303 304 304 304 304 305 304 304 304 303 302 301 301 301 300 300 299 299 299
313 313 312 313 313 312 315 315 315 313 311 311 310 309 307 305 303 302 301 301 300 300 299 300 299 298 299 298 297 296 295 293 293 291 292 291 291 292 292 288 288 290 288 287 287 287 287 287 286 286 286 286 288 287 287 286 288 289 292 296 303 306 306 305 304 303 302 303 302 302 303 303 303 303 302 302 302 302 301 301 300 299 299 298 298
307 308 309 311 312 313 314 315 315 315 313 313 312 311 309 308 306 304 302 302 302 300 299 299 299 298 297 297 297 297 297 298 299 296 292 293 295 296 295 291 288 287 289 287 287 286 286 285 285 285 285 285 286 286 285 286 286 289 291 294 299 304 306 306 304 302 302 301 301 301 301 301 301 301 301 302 302 302 301 301 300 299 299 299 298
304 305 308 309 310 312 312 312 313 314 314 312 312 311 310 307 305 304 303 302 301 301 300 300 300 299 298 298 298 297 297 299 300 299 296 295 295 294 294 290 290 288 287 286 285 286 285 284 285 285 284 284 285 284 284 285 286 288 290 291 296 301 304 304 304 302 301 300 300 300 301 300 300 299 300 299 300 300 301 300 299 299 299 298 297
306 305 308 309 309 310 312 312 313 313 313 313 312 312 310 308 306 304 303 302 301 300 300 300 300 299 299 298 298 297 297 298 298 298 296 293 293 293 293 287 287 288 286 284 286 284 285 285 285 284 284 285 284 284 284 284 285 288 290 290 293 298 301 302 303 301 300 299 299 299 299 299 299 298 297 299 299 299 300 300 299 299 298 298 297
306 307 306 306 307 308 308 309 310 310 311 311 311 310 310 309 307 306 305 304 302 301 300 300 299 299 299 298 298 297 298 298 297 296 297 295 295 294 293 290 287 285 285 285 284 284 286 286 285 285 285 285 284 284 283 283 285 287 289 289 289 294 299 301 302 301 300 298 298 298 298 298 298 298 297 298 298 299 299 299 299 299 298 297 297
305 303 303 303 304 304 305 306 307 308 309 309 310 309 309 308 308 306 305 305 303 301 301 300 300 300 299 299 298 297 298 297 297 297 296 296 295 295 293 293 292 291 287 285 284 283 285 284 284 285 284 284 284 284 284 283 284 287 288 289 288 291 296 300 302 302 300 299 298 297 297 298 297 297 297 296 296 297 297 297 297 297 295 294 294
303 301 302 301 302 303 303 304 304 305 306 307 307 308 309 308 307 306 305 304 303 302 301 300 300 300 300 299 298 298 298 298 297 296 296 296 296 296 295 294 294 292 292 287 288 286 286 284 284 284 284 284 284 284 283 282 283 285 286 288 288 289 293 298 301 302 301 300 298 298 297 297 297 296 296 296 296 296 295 295 294 293 294 294 295
301 301 301 300 300 299 302 302 303 303 304 305 305 306 306 306 307 307 307 305 303 303 302 301 300 300 300 300 299 298 298 297 295 294 294 295 294 294 294 295 296 294 293 292 293 290 288 285 286 285 283 283 284 283 282 282 284 285 285 287 287 286 290 295 299 300 300 299 298 298 298 297 296 295 294 295 295 296 295 295 294 294 295 295 295
299 299 299 299 299 299 300 300 301 301 302 302 303 304 304 304 305 304 304 304 303 303 303 302 302 301 299 298 298 297 297 295 294 294 293 293 293 293 293 294 293 294 294 293 291 293 292 289 283 286 283 282 283 284 283 283 283 284 284 286 285 286 288 292 295 297 298 299 298 298 298 297 297 295 295 294 295 295 296 295 295 295 295 295 295
299 299 298 298 298 298 298 299 299 300 300 301 302 302 303 303 304 303 303 302 302 301 300 300 301 299 298 297 296 296 296 296 295 294 294 293 293 293 292 292 292 292 292 291 291 292 289 290 285 284 284 282 284 283 282 282 283 285 282 284 285 285 286 287 292 295 297 297 298 298 297 297 297 296 295 294 294 295 295 295 295 295 295 295 295
297 297 297 297 298 298 298 297 298 298 299 299 300 301 301 301 302 302 301 301 300 299 298 297 297 298 297 297 297 296 296 295 295 295 294 294 293 292 292 291 291 291 291 290 290 290 290 284 284 284 284 283 282 283 282 282 282 283 283 282 283 283 284 285 287 290 293 295 296 296 297 296 296 296 295 294 293 294 294 295 295 295 295 295 294
296 297 297 297 297 297 297 298 297 297 298 299 299 299 300 299 298 300 300 298 298 298 297 297 297 297 296 296 296 296 296 295 295 294 294 293 292 291 291 290 290 291 291 290 290 290 290 285 284 285 284 283 282 283 281 281 281 282 282 281 282 282 281 282 282 285 290 292 294 295 296 296 296 295 295 294 294 294 295 295 295 294 294 294 294
294 296 296 296 295 295 296 296 297 296 297 297 297 297 297 297 297 297 298 297 296 296 296 297 297 296 295 295 295 296 296 295 294 294 294 293 292 291 290 290 290 290 290 290 289 289 289 289 285 283 282 282 282 282 282 282 281 281 281 281 280 281 281 281 280 281 287 291 293 294 295 295 295 294 294 294 294 294 294 294 294 293 293 294 294
294 293 294 295 294 294 294 294 294 295 295 295 295 295 296 296 296 296 296 296 296 296 296 296 296 295 295 294 295 295 295 294 294 294 294 293 292 291 290 290 290 290 291 290 290 289 290 289 285 283 283 282 282 283 282 281 280 280 280 281 281 280 280 281 280 280 283 289 290 292 293 294 294 293 293 293 293 293 293 293 293 293 293 293 293
293 293 292 292 293 293 294 294 294 294 294 294 294 295 295 295 295 295 296 296 296 296 296 296 294 295 295 295 295 295 294 293 293 293 293 292 292 291 291 291 290 290 290 290 289 289 288 288 287 284 283 282 282 281 281 279 279 279 280 280 280 279 280 281 280 281 282 287 289 290 291 292 291 291 292 292 292 292 292 292 293 292 292 293 292
292 292 292 292 292 292 293 294 294 294 294 294 294 295 295 294 294 294 295 295 295 295 295 295 295 295 295 295 295 295 294 293 293 293 293 292 292 291 290 290 290 290 289 288 288 288 287 287 287 282 281 280 280 280 280 280 279 278 278 280 280 279 279 279 279 280 280 281 283 286 288 289 289 290 290 291 291 291 291 292 292 292 291 291 291
291 291 291 291 291 291 293 293 293 293 293 293 293 294 294 294 293 293 293 293 293 294 295 295 295 295 295 295 295 295 295 294 294 294 293 293 292 291 291 290 290 289 288 288 287 287 287 286 286 284 281 281 280 279 280 281 280 280 278 278 277 279 279 279 278 279 280 280 283 285 285 286 287 287 289 290 290 291 291 291 291 291 291 291 291
290 290 291 291 291 291 292 292 292 292 292 293 293 293 293 293 293 293 293 293 293 293 293 294 294 294 294 294 294 295 295 295 294 294 294 293 292 291 291 290 290 289 288 287 286 286 286 286 285 283 281 280 280 281 281 280 279 278 279 278 276 277 277 278 279 278 279 279 279 281 284 285 286 287 288 288 289 290 290 290 290 290 290 289 289
289 290 290 290 290 291 291 291 291 291 291 292 293 293 293 293 293 293 293 293 293 293 293 293 293 293 293 294 294 294 293 291 291 292 293 293 293 291 291 290 289 288 288 287 287 286 285 285 285 284 281 280 279 279 278 277 277 277 278 278 277 278 278 277 278 280 280 278 279 279 280 282 282 283 284 284 285 287 288 289 289 289 288 288 288
288 289 289 289 289 290 290 291 291 291 291 292 290 291 292 293 293 293 293 293 292 293 293 293 293 292 293 293 294 290 289 289 289 290 292 292 292 293 292 291 289 288 287 287 286 286 285 285 284 284 281 280 280 280 279 278 279 280 278 277 276 278 278 277 278 279 280 279 278 278 279 280 281 281 281 281 282 284 285 285 285 285 286 288 288
287 288 288 288 288 289 289 290 290 291 291 291 290 292 293 294 293 293 292 292 292 292 292 293 293 293 292 292 292 291 289 289 289 290 291 291 292 292 292 291 291 290 288 287 286 286 285 285 285 284 282 281 282 281 280 280 279 279 278 278 278 278 277 275 274 278 280 279 278 278 278 279 280 279 280 280 281 281 282 282 284 286 285 286 285
287 287 287 287 288 288 289 289 289 290 291 290 292 292 293 293 293 293 293 292 292 292 292 292 292 292 292 292 292 292 291 291 291 291 290 290 291 291 291 291 291 291 291 289 288 286 286 285 285 285 284 283 283 282 280 280 279 279 279 278 278 278 277 277 277 276 279 280 278 278 278 279 278 278 279 280 279 279 278 281 284 285 285 285 284
285 286 287 287 287 288 288 288 289 289 290 290 292 292 293 293 293 293 293 292 291 291 292 292 291 291 291 291 291 290 291 288 288 290 290 289 289 290 290 290 290 291 291 291 291 289 288 286 285 285 285 285 284 283 282 280 281 278 279 278 278 278 278 277 278 279 277 280 279 278 277 278 277 277 277 279 278 277 277 281 283 284 285 285 285
285 286 286 286 287 287 287 288 288 289 289 289 291 292 292 292 293 293 292 291 290 291 291 291 291 291 291 290 291 291 291 290 289 289 289 289 288 288 288 288 289 289 289 290 290 289 289 288 287 286 286 286 284 284 282 282 280 279 279 278 279 278 278 278 280 281 278 280 278 278 277 277 276 276 276 278 277 276 276 279 283 284 285 285 285
286 286 287 287 287 286 286 287 287 288 289 289 291 291 292 292 293 293 292 291 290 290 291 290 291 291 291 291 290 290 291 290 289 288 288 288 287 287 287 286 287 288 288 288 289 289 289 288 287 287 287 286 285 285 283 283 282 281 281 280 280 280 280 281 278 277 276 278 279 279 276 278 275 275 276 277 276 275 275 279 283 284 285 285 285
286 285 285 285 285 286 286 286 286 286 287 289 290 291 291 292 292 290 290 289 289 289 289 289 289 290 290 291 290 290 290 290 289 289 288 288 287 286 286 286 286 287 287 288 289 290 289 289 288 287 287 286 286 285 284 283 282 282 282 281 281 279 278 277 277 275 275 276 278 278 277 274 275 275 276 276 275 275 275 275 280 283 284 285 285
286 286 285 286 286 286 285 285 285 286 287 288 289 290 291 291 291 289 288 288 288 288 288 288 289 289 289 289 289 289 289 289 289 291 291 289 286 286 285 285 286 286 286 287 288 289 290 290 290 289 289 288 288 288 287 286 284 283 281 279 278 278 277 275 277 274 275 274 275 277 278 275 274 275 274 273 274 274 274 274 275 280 283 284 284
285 285 285 285 285 285 285 285 285 285 286 287 288 289 290 291 290 288 288 288 287 288 288 288 288 288 288 287 287 288 288 288 289 290 291 289 286 286 285 285 285 285 285 286 285 286 288 289 288 288 288 288 288 288 288 287 286 284 281 279 279 278 277 278 277 277 275 273 274 277 276 277 273 274 273 270 270 272 274 275 275 275 278 281 283
283 284 284 284 284 284 284 284 284 284 285 285 287 288 289 290 289 288 288 288 287 287 287 287 288 288 288 287 286 287 287 288 290 290 290 288 287 286 286 285 284 284 285 284 283 284 284 284 285 285 285 286 286 286 286 287 286 284 282 282 280 279 278 278 279 275 272 274 275 277 276 274 271 274 273 272 272 273 270 271 273 274 274 276 277
Wind_Speed
7 7 6 6 4 3 3 4 3 4 4 3 3 4 3 3 4 4 3 4 4 4 3 3 3 2 3 4 4 3 2 2 3 3 2 2 3 4 6 12 14 14 13 13 14 14 13 12 13 13 13 14 13 12 13 13 12 11 11 12 12 13 12 13 12 13 13 14 15 15 14 15 15 15 16 16 16 16 17 16 17 17 17 18 18
8 6 7 6 4 3 3 3 3 3 4 4 2 3 4 3 3 4 4 4 3 3 3 4 3 2 2 3 3 2 1 2 2 2 2 2 2 3 4 9 12 14 13 13 13 12 12 14 13 12 13 12 12 11 12 12 14 13 11 12 11 12 12 12 12 12 12 13 13 14 14 14 14 14 15 15 15 15 15 16 16 16 16 17 17
7 7 7 7 6 5 4 4 4 3 3 3 3 2 3 3 3 4 3 3 3 2 2 3 3 3 2 3 2 2 1 1 1 2 2 2 1 1 2 6 11 14 14 15 14 12 12 14 12 11 10 12 11 12 12 11 12 11 11 11 11 11 11 11 11 11 11 12 12 13 13 13 13 14 14 14 14 14 15 15 15 15 15 16 16
7 7 8 7 7 5 5 5 5 4 3 4 4 3 3 3 3 3 3 3 3 3 2 3 3 3 3 3 3 2 2 2 2 2 2 2 1 1 1 2 1 10 9 13 14 14 12 12 11 11 11 10 12 11 12 11 11 10 11 11 11 11 11 11 11 11 11 11 11 12 12 12 12 13 13 13 13 13 13 13 13 14 14 15 15
6 9 8 8 6 5 5 5 5 5 4 5 6 5 4 4 4 3 4 3 4 3 2 2 3 3 3 3 2 2 2 1 1 1 1 1 1 0 1 1 1 1 7 10 12 11 14 16 15 13 10 10 11 11 11 11 11 10 11 11 11 11 11 11 11 10 10 11 10 11 11 11 11 12 12 12 12 12 12 12 13 12 12 15 13
6 7 9 8 8 6 5 5 5 5 6 6 5 5 5 5 4 4 4 4 4 3 3 3 2 2 3 2 2 2 2 2 2 2 3 2 2 2 2 1 2 1 1 5 9 8 10 13 12 11 10 10 10 11 11 12 11 12 10 11 10 11 11 10 10 10 10 10 10 10 10 10 11 11 11 11 11 11 11 11 11 12 12 12 13
6 6 7 7 8 6 6 5 5 5 5 6 7 6 6 7 7 7 5 5 4 4 3 3 3 3 3 2 2 2 3 3 3 3 3 3 2 2 2 2 2 2 2 1 3 4 11 13 12 12 11 10 11 12 11 11 11 11 11 11 10 10 10 11 10 10 10 10 10 10 9 10 9 10 10 10 10 10 10 10 11 11 11 11 11
7 7 6 7 6 7 7 6 8 6 5 4 3 6 5 4 4 5 7 5 6 6 5 5 4 3 2 2 2 2 2 2 3 3 3 2 2 2 2 1 1 1 2 1 0 2 5 8 11 12 13 12 12 14 13 12 12 11 11 11 11 11 10 10 10 10 10 9 9 9 9 9 9 9 9 9 9 9 9 9 10 10 10 10 11
11 10 8 7 7 8 7 8 8 6 6 7 5 4 6 6 5 4 1 4 6 6 5 5 5 4 3 3 2 2 2 1 2 2 2 2 3 2 2 2 3 2 1 1 1 0 4 4 7 10 12 12 12 13 13 14 12 12 11 12 12 11 11 10 10 10 10 9 9 9 9 8 8 8 8 8 8 8 8 8 8 9 9 9 10
10 8 7 9 8 7 6 7 8 8 7 7 7 6 5 6 7 5 3 4 5 6 6 4 4 5 4 3 2 2 1 1 1 1 1 1 1 2 2 3 2 2 2 2 2 1 1 5 7 6 4 3 12 13 14 13 13 13 13 12 13 13 12 12 11 12 10 10 9 10 8 8 7 7 7 7 7 7 7 7 7 7 8 8 8
10 13 10 8 8 8 8 9 7 6 6 7 7 7 7 6 6 6 3 2 2 2 4 5 4 3 4 2 1 1 1 2 1 0 1 1 1 2 2 2 2 2 2 2 2 2 2 2 2 1 2 4 1 12 15 14 15 14 14 14 12 9 9 10 9 9 11 9 8 4 8 10 10 6 7 6 6 6 5 5 6 6 6 7 7
13 10 9 9 8 8 7 6 8 7 7 7 7 8 11 10 8 8 8 4 4 3 4 5 5 4 3 2 2 2 2 1 1 1 0 0 1 1 1 1 1 1 2 2 3 3 2 2 2 1 0 2 4 5 5 16 14 15 15 15 15 14 14 12 12 11 11 13 11 10 7 1 4 9 7 6 5 5 4 4 5 5 5 6 6
11 12 11 9 7 8 9 8 8 10 9 11 10 5 3 4 5 6 10 8 3 4 5 4 7 3 2 2 2 1 2 2 1 1 1 1 2 1 1 2 1 1 1 1 2 2 3 1 1 2 1 1 2 3 5 5 14 16 16 16 15 16 14 13 12 12 11 9 11 10 9 9 4 2 8 5 5 5 4 4 3 4 4 4 5
11 12 12 12 10 8 9 7 7 7 10 8 7 7 7 6 7 4 3 6 5 8 7 8 3 7 5 2 2 2 3 3 3 4 3 2 1 1 1 2 2 1 1 2 2 2 2 1 0 1 2 1 1 1 2 2 3 3 16 15 17 16 16 14 14 13 12 11 10 9 8 8 7 4 3 6 4 4 3 3 2 2 3 3 4
11 9 9 9 10 8 8 9 10 8 7 8 9 9 8 8 8 9 7 3 3 3 7 9 6 4 4 5 4 5 5 3 4 6 5 4 2 3 2 1 2 1 1 1 2 2 2 1 1 2 2 2 2 2 1 1 2 3 3 16 15 18 17 17 15 14 13 13 11 11 10 8 9 7 4 4 4 4 1 4 3 0 2 3 3
9 10 9 10 10 11 9 7 9 10 10 9 9 11 10 8 10 9 9 7 5 7 9 10 5 11 5 6 1 2 3 13 12 7 5 6 4 4 3 3 2 2 1 2 2 2 2 2 2 1 1 1 1 2 2 1 2 3 3 5 11 17 17 18 17 15 15 14 12 11 10 9 8 8 7 6 6 4 4 5 3 2 0 1 2
10 12 12 12 11 10 9 10 10 11 11 11 11 13 14 13 13 11 13 12 10 6 9 10 9 8 6 6 1 1 9 3 3 6 4 5 8 6 5 5 4 4 3 3 2 3 3 2 1 1 2 1 1 1 1 1 2 3 2 3 5 9 17 19 18 17 17 16 15 13 11 10 9 9 6 7 5 5 5 3 4 2 2 1 2
7 9 11 11 12 13 12 11 11 11 11 12 11 5 5 8 12 11 11 12 9 8 8 8 8 9 8 3 4 5 5 4 4 6 1 6 3 6 6 6 5 5 4 4 6 5 2 3 2 2 2 2 2 2 2 3 3 3 3 3 5 4 11 19 19 19 18 16 15 14 13 11 10 9 8 6 5 4 3 3 4 3 2 2 1
6 6 7 8 9 10 11 11 11 9 8 7 8 12 12 13 11 11 12 12 8 9 10 10 6 9 9 9 3 2 3 6 8 3 3 2 5 5 6 7 6 6 8 8 7 6 5 4 5 5 4 4 4 4 3 2 3 4 6 7 9 6 4 13 19 18 18 18 17 15 15 14 12 10 9 8 6 5 4 3 4 4 4 3 2
6 6 6 7 7 6 7 8 10 10 10 11 12 12 10 8 11 15 11 8 8 11 12 8 13 12 14 13 10 3 4 4 3 6 2 3 4 2 4 6 5 6 6 7 9 8 7 6 5 5 5 5 5 6 6 5 5 5 5 10 10 9 8 6 12 17 16 15 16 16 15 14 13 11 10 8 8 7 6 5 5 4 3 3 4
6 6 6 6 6 7 8 9 9 10 10 11 11 11 13 14 14 12 13 11 11 13 9 10 11 11 10 14 10 9 5 4 2 1 6 5 7 7 9 3 4 7 8 8 7 7 8 7 7 7 6 7 7 7 6 5 5 5 5 10 12 13 12 11 9 8 13 15 14 14 14 14 13 12 11 9 8 8 8 6 6 5 4 3 4
6 6 6 6 7 6 6 6 7 8 9 10 11 11 10 10 11 12 12 12 9 10 11 8 10 9 9 9 10 8 4 5 7 5 5 7 11 6 8 10 9 12 11 8 11 9 8 7 8 8 7 7 7 7 6 6 6 5 6 10 13 14 15 13 13 11 9 11 15 15 14 14 14 12 11 10 9 9 8 8 7 6 6 6 4
5 6 5 5 5 5 6 6 5 6 8 9 9 10 10 11 11 12 13 13 10 11 11 10 9 10 9 8 12 13 15 15 14 10 10 7 5 9 7 7 11 10 8 11 8 8 7 7 7 7 7 7 6 6 6 5 4 6 10 11 12 15 15 15 15 14 13 12 10 9 10 10 11 12 11 9 10 9 9 8 5 5 5 5 4
4 4 5 6 7 7 7 7 7 6 8 8 8 8 9 10 10 12 12 15 15 12 11 13 13 8 11 7 7 10 11 12 12 10 11 12 11 11 9 4 5 9 0 3 6 9 9 9 7 7 8 6 7 6 6 6 7 12 10 12 13 15 17 17 16 15 14 13 12 11 10 8 8 9 9 9 9 9 8 7 6 6 6 7 4
7 8 8 9 8 8 7 7 7 7 6 7 7 8 8 8 9 10 12 12 12 14 14 16 16 15 13 13 12 10 12 9 7 6 8 8 8 10 7 5 8 4 4 3 5 5 5 9 8 8 6 9 9 8 7 8 6 10 12 6 14 12 17 18 18 16 15 14 14 13 13 12 11 11 10 9 9 8 8 6 6 7 7 4 4
8 9 10 9 7 7 8 8 7 7 6 6 7 8 9 9 10 11 12 11 10 13 14 13 12 14 9 9 11 11 12 11 12 10 9 8 9 12 10 3 4 6 1 3 1 2 6 11 12 11 11 11 10 9 7 7 5 12 14 8 10 12 14 17 18 17 17 16 15 14 14 14 13 12 11 11 10 9 8 7 7 8 7 6 5
8 8 6 8 8 8 8 7 7 7 6 6 5 6 7 8 9 11 11 11 11 12 13 14 14 15 14 12 10 11 11 9 9 10 9 10 11 9 9 10 7 6 5 4 4 10 13 5 11 12 12 11 11 9 9 8 9 13 14 8 8 12 12 18 19 18 17 16 15 15 15 14 14 13 12 10 10 10 9 9 9 9 9 6 4
6 5 6 7 8 8 8 9 9 9 8 8 8 6 6 7 7 8 11 8 10 14 13 13 15 15 15 13 11 12 11 12 11 11 11 10 9 7 8 10 12 13 5 8 6 10 10 9 4 11 10 13 13 9 7 8 8 15 14 8 8 9 12 16 21 20 18 17 16 16 16 16 15 14 13 12 10 10 9 9 8 6 4 3 4
7 7 7 7 7 7 8 7 8 8 9 9 9 9 8 8 7 7 9 7 10 13 11 12 13 13 12 14 13 12 12 11 10 10 10 8 9 9 9 12 11 12 10 8 10 11 8 15 11 10 15 14 13 9 8 8 9 12 10 9 9 9 10 15 20 20 19 18 17 18 17 17 16 16 14 13 13 12 11 10 9 8 8 8 9
7 6 7 7 7 7 7 8 7 7 8 8 8 8 8 8 8 8 9 7 9 10 11 11 12 11 12 12 12 12 11 11 10 10 9 10 10 10 10 11 10 13 12 14 15 9 6 8 11 7 8 13 13 11 11 12 13 15 12 10 9 7 12 15 17 17 17 19 20 19 19 19 18 17 15 14 14 13 13 12 12 11 11 11 11
6 6 7 7 7 7 8 8 7 8 8 8 8 8 8 8 8 8 7 7 9 11 11 11 12 12 13 14 12 12 10 11 10 10 9 10 10 10 11 10 11 13 13 12 15 5 8 8 9 10 7 12 10 10 9 10 12 14 12 8 8 9 13 11 16 18 19 19 19 19 19 20 19 17 16 15 14 14 13 13 13 12 12 12 11
7 8 8 8 8 8 8 8 8 8 8 8 8 9 9 9 9 9 9 9 9 10 9 8 9 10 11 12 12 11 11 10 10 10 11 11 11 11 11 11 11 11 10 11 14 17 5 5 6 9 9 10 10 11 11 9 8 15 12 10 11 13 12 9 14 16 17 18 19 19 20 20 19 17 16 15 14 14 14 14 14 14 14 14 13
7 8 8 9 9 9 8 8 8 9 8 9 9 9 10 10 9 10 10 10 11 9 8 9 10 10 11 12 12 12 11 11 10 10 11 12 11 10 10 10 10 10 11 13 15 17 7 1 3 6 8 10 9 11 11 10 9 10 10 10 10 9 6 6 6 13 15 17 18 19 20 20 19 18 17 16 16 16 16 16 16 15 15 14 13
7 9 8 8 8 8 9 9 9 9 9 9 9 9 10 10 9 8 9 9 11 11 9 11 10 10 10 11 12 12 11 12 11 12 11 11 11 10 10 10 12 12 12 12 14 14 16 3 3 3 6 10 10 9 13 13 12 10 11 8 8 8 6 6 7 8 15 17 19 19 20 21 19 20 19 17 17 17 18 18 17 16 16 16 15
7 7 8 8 7 7 8 9 9 10 10 10 9 9 10 10 10 10 10 9 10 11 11 12 11 10 11 12 12 12 10 11 11 12 10 11 10 12 13 11 12 12 12 13 12 13 15 12 7 6 7 8 11 10 12 11 11 9 10 10 9 8 9 10 10 9 16 21 21 20 20 20 19 20 20 19 19 18 17 18 19 17 17 17 16
7 7 7 6 6 7 8 8 9 9 9 9 9 10 11 10 10 11 10 10 10 10 11 10 9 9 11 11 12 11 10 12 11 11 11 11 11 11 12 11 12 13 13 12 14 13 12 12 6 9 7 8 7 6 9 8 8 9 8 4 4 4 6 7 7 9 13 21 21 20 19 20 19 18 18 20 19 18 18 18 18 18 17 16 16
7 6 6 5 6 7 8 9 9 9 9 9 10 10 10 10 10 10 10 10 10 10 10 10 9 10 10 12 11 10 10 11 10 11 10 12 11 11 12 12 12 12 11 11 12 11 12 13 7 5 5 5 4 5 10 9 9 7 7 9 9 8 8 6 5 5 11 19 20 20 19 19 18 18 19 19 19 18 19 20 20 19 17 17 16
6 6 6 6 7 8 9 10 9 9 8 9 10 11 10 9 9 10 9 9 9 9 10 9 9 9 10 11 10 10 10 12 12 11 10 13 11 12 12 12 12 11 12 11 10 11 12 13 10 5 5 7 6 6 10 11 11 10 8 5 5 7 8 9 8 5 5 7 8 10 13 15 17 19 19 19 19 20 21 21 21 20 19 17 16
6 7 6 7 7 8 9 9 9 9 8 8 9 10 9 9 9 10 10 9 9 9 9 10 9 9 10 10 10 10 11 12 12 12 11 12 12 13 13 13 12 11 11 11 10 11 12 12 9 9 6 7 7 8 8 10 9 11 13 9 9 8 8 8 8 6 4 4 8 12 11 10 10 9 14 20 21 21 22 22 21 20 18 16 14
7 7 7 7 8 7 8 8 8 7 8 8 9 9 9 9 9 10 10 10 11 10 10 9 9 9 10 10 11 11 12 12 12 12 11 12 10 12 11 11 11 11 11 10 10 10 10 11 11 9 7 6 6 3 4 7 8 5 9 12 12 11 11 9 8 8 8 6 6 6 10 10 11 14 16 18 21 22 23 21 23 20 17 15 14
6 6 7 7 7 8 8 8 8 7 8 9 9 10 10 11 10 11 11 11 11 11 10 9 9 10 10 10 11 11 12 14 16 15 14 13 11 11 10 10 11 11 11 9 9 9 10 10 11 8 8 8 7 8 9 11 14 14 10 10 7 7 7 7 7 6 6 9 7 6 6 8 7 8 9 10 12 17 17 17 12 15 14 14 13
6 6 6 7 7 8 8 8 8 7 8 8 10 15 13 10 9 9 9 10 10 10 11 11 10 10 11 10 11 15 16 16 17 18 18 18 18 14 11 11 12 11 11 10 10 10 11 12 12 11 11 14 11 12 11 12 8 6 9 12 11 10 7 5 3 6 7 7 8 9 9 7 8 8 9 10 7 9 6 8 9 7 9 14 13
6 6 6 7 7 8 8 8 9 8 8 8 14 15 15 17 12 10 10 10 10 11 11 12 12 11 11 11 11 12 14 14 14 18 18 19 19 20 20 17 14 13 12 12 12 12 12 12 11 11 12 14 14 12 13 8 9 12 10 10 8 10 10 11 12 5 7 9 9 6 7 7 8 10 9 9 8 7 6 7 11 13 13 13 14
5 5 6 7 7 7 7 8 9 9 9 10 14 14 15 16 15 11 10 10 10 10 11 11 11 10 11 10 10 9 10 11 11 12 15 18 19 19 20 20 20 20 19 15 13 12 12 12 12 13 13 14 12 11 11 10 10 10 9 9 11 13 11 13 10 13 7 12 8 8 9 6 9 9 9 9 7 6 7 11 16 15 15 15 14
4 6 6 7 8 7 7 9 9 9 10 10 13 14 15 16 16 14 10 10 10 11 11 11 11 11 10 10 10 8 8 12 12 11 10 11 14 19 20 20 21 21 21 23 21 15 11 13 14 13 14 13 12 12 12 13 11 13 10 9 10 11 11 11 10 10 5 13 8 6 8 7 8 9 10 8 6 6 7 12 15 16 16 15 15
4 5 5 6 6 7 8 9 9 9 10 8 12 14 15 15 16 14 11 11 10 11 12 12 11 12 11 11 10 10 9 9 10 10 10 10 10 10 11 12 12 15 20 23 23 22 16 14 14 15 14 12 14 11 13 13 13 14 14 13 13 12 12 14 12 5 5 9 12 9 9 6 8 8 9 5 5 5 5 10 16 16 16 16 15
5 6 6 6 6 6 6 7 7 10 8 9 11 14 15 16 16 14 10 10 9 10 11 11 13 12 11 11 11 11 10 9 8 10 10 11 9 10 10 11 11 12 12 14 14 14 15 14 14 15 11 10 11 9 10 11 15 14 15 17 17 15 10 3 5 5 4 5 7 9 12 6 6 8 7 5 5 5 4 9 15 15 15 15 14
4 5 6 5 8 8 7 7 8 10 8 9 12 13 15 14 16 10 8 9 10 10 11 11 11 10 10 11 11 11 11 11 11 14 14 10 10 11 12 12 11 11 12 13 16 16 15 14 13 10 7 8 10 9 11 12 11 9 5 3 4 6 7 7 6 3 5 5 7 9 6 3 6 8 5 4 5 5 4 3 10 15 15 14 13
6 6 6 6 6 7 8 7 8 10 10 8 11 13 14 15 12 8 8 8 9 11 12 11 10 10 10 9 10 10 10 10 11 15 17 14 11 12 11 12 11 11 11 9 14 18 18 17 15 16 15 14 16 17 20 23 15 13 10 9 11 11 10 7 8 6 8 6 6 6 3 3 5 6 4 2 4 4 4 5 4 8 12 12 14
8 7 7 7 7 6 8 9 8 10 12 8 10 12 13 14 12 9 8 8 10 11 11 10 9 9 10 14 13 11 11 11 12 17 17 13 12 12 12 13 14 13 11 6 6 9 16 18 18 16 18 18 20 22 23 25 25 20 16 17 12 11 11 9 10 11 4 5 7 7 6 5 5 5 4 2 1 2 3 4 4 4 7 8 12
7 6 6 7 8 7 7 9 10 11 12 11 10 13 14 14 12 8 8 9 11 11 10 11 9 9 9 10 16 15 13 13 17 16 17 14 12 12 12 12 14 14 10 7 10 10 10 9 9 10 11 15 14 13 15 27 26 19 14 12 12 13 10 10 10 6 3 6 8 12 10 5 7 5 6 4 3 2 1 1 3 3 4 4 4
Wind_Direction
159 157 149 144 124 128 132 125 122 126 134 140 146 133 126 127 125 121 118 119 117 115 112 104 106 108 118 118 116 120 125 129 131 124 118 105 149 144 141 142 133 134 141 139 137 136 129 120 122 123 126 127 121 118 115 114 113 112 108 106 102 102 101 99 100 99 98 96 94 92 93 90 89 88 85 84 82 79 80 78 76 74 72 69 67
166 159 156 146 138 130 129 136 137 137 144 144 159 137 134 132 123 122 122 121 116 106 115 107 90 91 91 106 95 103 133 140 141 128 116 124 142 147 156 130 133 138 140 137 139 131 128 129 130 132 131 126 124 124 122 121 120 122 116 111 110 108 107 107 104 101 101 100 97 94 93 92 92 88 86 86 85 81 82 79 78 75 72 69 66
166 162 162 157 155 149 148 146 147 155 151 136 139 138 129 129 135 134 130 120 101 99 104 107 101 84 67 81 81 73 53 20 59 80 96 89 97 122 191 162 150 147 153 149 145 145 139 136 138 140 137 130 132 130 128 127 126 124 120 119 117 116 114 112 108 107 105 101 99 98 97 93 95 91 90 87 87 85 80 78 77 76 74 70 65
170 168 168 164 166 158 154 161 159 157 154 142 136 129 114 102 87 78 91 96 100 92 72 103 98 76 54 53 52 62 44 16 22 34 44 54 34 30 44 12 137 155 163 152 152 158 140 137 145 147 143 138 137 138 136 132 131 129 129 126 126 123 122 119 116 113 110 105 104 104 102 98 97 97 93 89 89 84 83 80 76 75 77 71 65
174 176 169 172 168 161 162 169 161 155 148 140 132 129 122 113 101 105 98 96 96 93 78 81 86 77 70 49 41 45 46 53 58 54 52 93 108 35 63 2 11 335 163 151 162 174 153 154 153 153 152 147 143 143 142 140 137 138 133 134 131 130 129 126 123 120 117 112 109 107 105 104 102 98 95 94 90 85 85 81 78 69 65 76 65
172 176 181 180 182 179 167 163 164 157 151 152 150 152 144 137 134 128 127 130 127 120 129 110 86 86 77 62 58 30 15 31 15 6 346 1 7 27 11 13 6 19 357 153 172 173 148 151 164 155 158 151 148 149 150 147 146 146 143 139 139 137 133 131 130 126 122 118 115 112 110 108 105 102 99 96 91 88 87 81 78 74 62 67 73
180 173 181 180 181 177 180 169 152 161 167 174 161 161 157 159 159 148 152 145 138 141 136 117 110 88 70 57 54 41 25 25 18 19 5 353 356 7 7 23 19 5 354 20 348 204 164 169 162 152 160 158 153 158 156 156 155 153 151 147 148 146 142 140 137 132 128 126 121 118 115 112 107 103 103 99 93 91 87 84 78 73 69 57 53
177 181 176 184 183 184 184 157 163 161 166 176 176 161 158 150 179 162 152 163 155 153 154 141 128 104 76 72 49 29 47 29 23 21 3 344 1 359 6 8 21 29 344 345 359 321 173 173 159 159 165 169 167 160 162 164 163 161 158 156 153 152 152 147 145 140 138 136 133 127 124 120 117 113 108 105 100 93 90 85 79 73 68 64 60
184 184 181 184 189 189 181 168 162 166 162 164 178 184 167 163 171 193 212 158 162 144 147 145 136 126 117 103 82 83 71 36 29 9 346 20 354 355 357 357 355 1 8 335 318 53 54 77 142 165 174 177 172 171 167 169 170 170 168 166 164 162 159 156 154 151 148 146 143 140 135 129 125 123 116 111 105 99 91 87 81 74 68 64 60
187 184 190 190 186 183 174 171 171 171 174 171 174 167 170 171 167 185 174 151 169 161 155 148 141 138 129 116 119 120 114 102 65 19 7 1 357 357 347 333 334 4 347 341 314 313 134 93 91 89 100 178 192 176 179 177 177 176 176 174 173 173 170 168 163 161 156 155 153 150 144 139 135 132 126 118 112 105 95 88 83 75 68 63 56
194 191 195 191 189 186 177 165 169 179 168 169 171 171 169 180 169 155 138 138 159 144 138 139 122 111 103 82 50 48 121 111 108 136 78 22 347 338 306 326 324 355 355 335 321 291 163 131 121 137 105 66 53 188 184 181 180 183 182 181 178 168 172 165 170 164 157 160 163 160 156 152 145 143 140 132 122 110 104 90 85 77 70 62 55
195 201 205 195 192 184 182 170 168 160 171 177 181 183 183 175 175 158 135 94 76 117 126 125 101 71 53 63 40 341 348 35 129 164 100 180 231 256 283 274 310 355 5 351 323 309 301 135 123 123 123 46 57 34 189 183 186 187 188 186 179 179 180 182 176 173 170 166 167 172 170 201 150 154 151 149 138 129 121 97 84 74 66 59 51
203 188 190 192 197 195 180 175 174 175 179 193 190 180 160 158 134 153 152 138 148 152 158 141 131 90 28 23 343 323 313 296 247 205 202 227 216 216 258 297 316 352 358 337 304 304 298 322 120 152 120 174 36 40 58 147 182 196 190 188 185 181 188 184 184 180 178 177 174 172 163 165 187 179 154 170 156 149 144 106 90 73 63 51 44
196 198 197 194 189 177 177 173 180 188 187 176 165 168 164 159 156 139 202 162 156 170 169 144 188 187 163 218 303 258 223 253 260 229 208 216 221 235 193 240 265 301 350 313 301 288 290 310 211 159 158 135 322 287 44 75 81 275 197 195 187 188 190 186 189 188 180 177 175 168 173 169 165 171 157 166 180 146 166 131 78 74 58 47 37
195 197 196 190 187 182 187 176 181 182 177 179 177 171 173 168 175 171 162 159 108 157 184 203 156 97 93 80 232 231 235 243 228 235 197 195 191 214 192 206 256 288 300 298 280 286 282 272 244 196 170 150 170 180 167 104 113 34 228 192 191 192 193 191 191 191 186 186 186 175 176 178 171 169 176 177 151 190 176 148 143 182 71 39 23
188 187 192 189 189 192 190 182 180 177 186 187 186 183 170 171 183 186 164 157 183 190 209 201 150 143 186 208 145 180 296 235 222 223 186 194 193 218 187 205 198 219 231 240 246 283 294 305 330 313 306 217 147 150 215 328 113 91 45 131 185 195 196 194 193 190 191 194 186 181 179 186 181 172 182 186 186 185 159 200 133 230 76 40 10
192 192 191 195 198 198 188 187 183 181 182 183 184 194 188 182 177 170 179 181 184 186 200 212 214 219 150 121 65 288 228 325 181 225 155 208 217 207 199 200 193 198 214 217 206 255 276 289 310 327 310 323 308 286 9 194 223 178 145 157 177 220 196 202 194 190 195 195 190 185 184 187 185 182 194 187 195 190 227 193 148 200 304 341 345
204 196 195 196 195 195 196 197 202 201 199 204 205 187 175 180 186 186 192 198 178 160 190 217 223 228 225 226 146 185 183 185 145 238 94 238 231 208 214 208 194 193 195 210 221 227 217 235 211 225 222 243 250 258 211 198 211 198 200 183 175 197 223 209 205 196 197 197 196 192 185 185 188 189 187 189 193 202 236 170 176 181 189 252 290
213 202 189 198 206 200 195 191 191 188 191 192 188 190 194 194 187 198 205 207 179 189 188 193 197 242 235 238 187 188 216 143 211 60 252 173 228 211 225 212 209 205 202 210 209 211 222 221 219 217 213 209 209 227 207 216 210 214 199 193 175 164 184 207 204 204 198 203 196 197 193 188 192 191 191 194 197 208 219 226 195 191 215 235 269
222 218 205 192 199 203 199 198 194 194 187 200 205 204 200 194 192 199 203 199 197 201 197 171 179 209 212 224 226 230 241 276 279 214 201 181 217 194 263 224 212 226 222 215 213 209 218 217 222 222 225 221 208 219 203 190 218 213 212 201 177 166 155 141 189 196 200 197 198 202 200 193 191 193 192 196 200 205 217 227 214 219 212 230 265
221 223 218 213 204 205 193 191 191 191 189 203 203 195 198 196 200 200 205 201 202 214 201 193 197 209 175 222 223 219 218 264 327 239 212 223 240 175 217 152 230 241 222 207 213 212 213 216 214 215 211 221 216 231 216 182 203 214 220 210 185 174 166 152 127 155 189 194 193 197 201 197 200 201 194 197 203 211 217 217 222 208 220 219 240
218 219 219 214 215 210 210 207 204 195 192 203 201 200 201 205 205 206 210 213 210 213 218 210 212 217 204 208 204 206 236 264 243 207 262 229 241 203 204 184 208 230 211 197 213 213 214 217 218 212 211 218 212 212 219 212 213 207 215 226 198 185 174 158 153 143 138 171 189 199 201 207 205 206 208 205 209 217 218 224 226 217 223 235 255
215 223 220 219 224 214 212 210 196 190 192 198 202 197 193 192 198 201 209 209 207 208 216 223 210 215 219 200 208 201 208 212 220 211 216 220 238 247 233 210 222 235 197 201 189 201 203 209 212 209 204 208 206 199 203 204 229 227 214 221 219 193 181 170 164 157 155 155 160 172 193 207 208 208 208 210 212 215 222 227 228 234 234 242 242
225 229 226 221 221 223 221 221 216 202 201 195 200 205 205 206 201 204 204 211 214 208 211 216 211 201 214 191 204 212 220 226 226 205 204 221 222 242 231 170 263 238 116 186 196 206 203 207 210 210 205 196 204 197 194 183 208 225 224 219 223 210 189 180 174 168 168 166 168 175 179 182 193 195 197 204 206 214 220 226 234 235 245 250 253
213 213 223 218 218 220 218 218 220 217 207 193 199 194 195 199 209 211 212 212 209 211 216 217 212 212 214 213 214 213 222 226 237 223 222 230 228 248 234 163 230 220 173 145 215 220 208 226 207 214 203 218 219 208 193 197 189 211 219 224 220 224 198 190 183 179 177 177 181 188 190 191 191 193 197 201 208 212 215 219 230 236 251 258 238
212 218 220 218 218 225 224 224 222 222 214 205 198 197 195 199 204 210 212 215 209 213 220 223 222 227 224 223 222 222 228 223 222 218 214 201 221 227 230 205 248 260 100 222 195 185 231 223 217 217 213 216 216 197 198 199 177 211 218 219 223 224 211 194 190 182 184 187 189 194 199 200 201 201 203 206 208 212 213 215 220 235 239 237 237
209 218 209 215 223 226 228 229 224 221 212 214 205 204 205 207 210 213 216 214 211 212 219 217 221 221 218 220 221 225 231 231 230 228 221 218 221 217 202 234 244 219 239 207 239 213 233 220 215 217 217 213 215 191 187 191 198 196 205 209 219 220 214 199 191 184 186 188 192 198 200 201 202 199 200 204 208 206 212 214 218 225 230 224 238
218 211 212 197 207 215 220 226 228 228 225 222 218 212 206 216 222 218 224 210 212 214 221 218 225 222 221 220 222 228 224 225 222 224 222 221 219 205 197 216 239 259 193 244 209 248 211 230 194 212 205 212 217 214 178 190 195 195 200 203 206 213 213 202 198 190 183 185 192 198 203 202 202 202 196 201 206 210 212 218 221 223 223 217 224
216 202 210 202 208 210 210 213 216 220 223 223 223 224 222 227 230 227 230 210 215 221 219 219 223 222 225 222 226 230 229 228 228 226 222 219 220 219 208 215 216 242 252 247 227 235 202 204 218 224 208 212 215 203 176 193 189 189 200 200 201 204 205 198 198 195 189 188 194 201 206 206 205 204 202 199 204 208 214 218 216 212 214 216 221
208 206 199 203 204 209 211 213 210 208 207 212 216 216 216 226 231 238 236 211 216 222 222 221 223 220 225 226 226 233 228 225 225 220 219 220 220 218 217 223 222 234 241 253 263 177 237 183 207 215 171 208 208 203 202 204 195 192 201 199 189 185 199 196 196 195 198 198 198 202 206 208 207 205 204 204 205 209 216 219 217 215 216 219 225
208 203 202 210 208 211 211 219 214 216 218 221 216 217 214 226 230 243 240 224 221 222 219 214 220 216 221 225 224 231 224 226 221 219 219 217 222 218 225 218 225 228 238 245 267 231 190 218 212 216 176 201 196 199 199 202 198 194 200 198 172 185 194 201 201 199 199 200 200 202 207 209 209 205 204 206 210 216 221 224 223 222 223 228 231
207 207 210 207 205 210 210 218 221 223 223 221 215 219 216 222 228 232 233 228 230 228 224 216 220 218 221 225 223 225 222 224 222 219 219 220 219 222 218 219 223 222 228 241 246 257 177 236 186 200 178 179 185 193 202 203 193 190 201 197 190 183 197 205 207 204 203 202 202 204 207 212 210 205 206 208 214 221 227 230 228 227 228 231 235
208 218 216 212 208 209 210 215 220 221 221 223 218 220 224 226 224 225 223 221 229 232 220 222 219 217 219 223 225 224 218 223 222 221 221 220 219 222 218 218 221 215 218 228 240 257 240 110 141 183 165 159 189 192 195 192 191 195 195 202 192 192 186 189 192 206 206 208 206 209 209 213 210 208 207 209 215 221 226 230 230 229 231 234 237
205 223 225 223 218 212 212 214 216 222 225 225 221 220 227 230 229 223 224 220 225 229 218 227 220 219 219 223 227 227 219 224 220 223 217 218 216 215 217 214 219 219 215 221 238 244 254 146 209 109 159 180 193 188 191 187 196 184 192 191 195 192 181 183 195 206 210 210 210 209 211 212 210 214 213 212 215 220 226 228 229 230 231 234 235
226 227 229 227 223 223 227 226 219 216 217 221 220 221 228 229 228 226 224 221 224 227 227 228 224 216 219 222 227 226 221 226 224 226 217 221 214 217 219 213 222 222 218 219 229 241 246 242 166 179 182 187 197 190 195 199 189 179 180 181 177 186 191 189 192 197 208 209 208 208 207 208 212 215 217 219 220 221 226 231 233 230 230 233 235
234 235 233 234 224 225 234 235 231 228 222 219 221 222 228 227 230 229 224 224 225 228 230 232 228 221 223 226 230 225 222 226 225 223 221 219 215 219 220 218 222 224 222 216 222 234 241 250 195 196 186 176 206 177 185 187 174 188 194 155 165 185 179 188 189 198 208 208 208 206 205 206 207 210 214 221 223 225 228 233 233 232 234 236 238
237 241 241 230 236 232 232 235 235 233 231 226 228 231 230 228 231 234 231 228 228 230 232 233 229 226 226 227 231 223 222 230 229 227 221 220 218 218 220 220 221 225 224 219 223 223 237 240 231 183 167 196 181 166 177 171 180 183 184 188 185 177 180 187 186 192 198 207 207 208 208 208 209 213 218 222 225 227 230 233 232 232 231 233 234
251 245 241 231 226 235 236 240 238 240 234 230 233 238 237 231 232 236 239 238 235 234 235 235 232 229 232 233 233 225 224 225 231 227 224 225 221 222 222 222 222 222 223 222 218 223 227 239 228 179 179 178 177 189 185 185 182 183 187 182 151 181 180 193 197 177 179 197 201 210 213 213 213 216 219 223 225 228 231 232 232 232 232 233 235
247 247 237 236 235 235 241 243 241 239 238 233 238 242 243 239 235 234 235 237 239 237 236 235 233 234 235 237 234 228 229 228 231 227 224 225 222 225 220 223 222 219 222 219 215 218 223 230 230 209 182 200 182 180 187 191 196 195 188 168 195 194 196 187 181 179 166 188 212 205 204 203 205 212 221 225 227 231 232 231 231 230 231 231 232
239 243 245 240 243 237 246 246 247 240 239 238 238 240 239 236 235 235 234 235 236 236 235 234 235 237 237 237 236 233 231 231 229 231 222 227 221 228 222 220 221 218 221 217 214 215 220 223 223 211 200 174 191 186 161 176 197 217 202 189 186 180 190 192 192 169 184 178 177 194 209 210 216 219 224 228 232 234 232 231 229 229 228 228 231
245 245 245 244 249 249 246 242 245 237 236 238 236 235 237 237 232 237 234 236 237 240 238 235 234 236 238 238 238 236 233 233 230 229 226 222 220 228 223 211 219 216 221 216 214 211 218 220 225 205 201 200 192 171 179 193 197 200 178 188 200 175 161 177 197 193 166 177 182 177 198 195 196 206 210 220 225 229 232 229 227 226 224 224 221
257 252 251 248 247 251 254 253 244 238 239 239 238 238 236 239 239 240 241 241 239 241 242 243 239 235 238 240 241 237 236 234 234 234 233 230 227 227 225 208 214 214 216 214 212 211 213 218 219 204 205 213 203 196 194 202 189 158 174 187 200 193 176 180 194 200 171 172 175 197 204 185 195 209 207 220 208 210 207 211 211 201 204 217 223
265 264 257 258 254 252 251 255 255 246 243 240 240 242 243 241 240 242 241 243 237 240 243 245 248 242 239 237 242 240 239 240 239 238 236 236 235 234 233 225 214 208 211 213 217 208 211 219 217 210 213 216 212 204 207 186 187 191 191 187 181 178 185 178 204 181 184 175 195 188 207 176 185 210 213 213 207 195 196 209 208 210 213 220 228
276 268 263 257 261 260 257 254 255 255 255 250 248 248 246 246 242 243 243 246 244 243 243 246 249 247 245 243 239 237 236 235 237 240 241 240 239 239 237 235 228 219 213 210 213 212 213 217 218 216 213 217 212 197 200 185 185 188 194 182 186 192 189 199 201 203 179 164 177 191 220 150 182 210 217 216 194 181 197 205 211 213 217 217 214
291 276 269 270 265 263 258 261 261 257 258 255 255 254 252 251 248 245 248 242 245 245 244 245 246 246 244 245 247 236 237 232 234 237 238 240 239 240 242 240 236 229 223 223 221 217 208 216 222 220 214 211 207 206 189 189 176 189 182 187 194 199 201 205 208 205 144 172 163 185 215 185 169 198 216 212 172 169 196 206 205 208 209 209 211
286 280 275 269 268 265 260 262 266 266 263 264 258 258 259 257 254 250 250 247 246 246 246 245 246 245 242 243 247 245 233 228 227 230 235 238 238 240 241 239 238 235 231 228 226 225 219 219 220 226 219 198 212 198 188 179 177 184 185 191 188 193 196 206 209 188 108 166 178 180 216 198 174 183 213 193 139 176 187 196 203 205 205 207 208
296 290 291 290 277 269 267 262 268 270 266 262 259 261 262 261 260 256 255 253 252 252 248 245 245 245 245 242 243 248 243 232 224 218 229 231 234 237 237 238 236 234 230 228 225 223 222 222 223 230 222 202 208 188 176 183 191 190 189 186 187 190 179 100 60 109 141 186 163 163 210 190 147 189 210 158 156 179 170 198 204 204 205 204 206
279 277 280 266 278 280 274 272 274 275 271 256 260 261 262 262 262 260 258 255 255 254 252 247 245 244 243 241 244 246 244 241 230 219 223 225 231 235 237 240 240 238 236 229 224 225 224 224 224 225 215 201 192 178 175 180 186 184 166 118 118 131 135 169 177 143 174 187 191 184 200 167 177 181 174 129 153 175 169 181 209 205 201 205 209
300 295 285 279 277 280 281 274 272 277 278 265 261 260 260 262 264 261 257 257 256 255 255 251 247 244 238 234 236 244 244 244 233 233 234 220 231 233 237 242 242 240 242 231 227 228 229 231 227 218 210 195 185 183 181 183 179 170 162 166 183 171 170 168 190 173 208 166 205 211 169 165 178 171 130 150 166 170 178 185 190 212 207 213 215
302 292 293 292 279 269 274 273 262 273 279 271 263 263 260 259 256 258 256 258 259 256 261 256 250 248 238 229 229 234 240 241 233 237 233 222 231 232 232 239 243 242 242 223 218 223 220 218 212 206 208 198 191 190 187 186 183 177 180 191 175 163 181 180 193 199 169 173 200 170 179 200 125 160 120 106 63 260 196 183 174 192 217 223 223
280 288 288 286 285 272 258 265 266 263 273 277 262 261 260 259 257 256 257 257 260 259 259 262 252 245 245 231 227 228 233 237 238 235 226 220 230 231 231 235 242 243 237 191 207 206 208 205 210 205 209 202 195 192 196 193 186 181 190 182 165 176 176 191 192 138 132 233 195 172 187 177 144 173 146 127 205 213 138 173 172 170 185 188 209